TimeAKDT,TemperatureF,Dew PointF,Humidity,Sea Level PressureIn,VisibilityMPH,Wind Direction,Wind SpeedMPH,Gust SpeedMPH,PrecipitationIn,Events,Conditions,WindDirDegrees,DateUTC
12:53 AM,28.9,23.0,78,30.03,10.0,North,8.1,-,N/A,,Overcast,360,2013-10-03 08:53:00
1:53 AM,25.0,21.0,85,30.03,10.0,NE,6.9,-,N/A,,Overcast,40,2013-10-03 09:53:00
2:42 AM,23.0,19.4,86,30.02,10.0,NE,5.8,-,N/A,,Scattered Clouds,50,2013-10-03 10:42:00
2:53 AM,23.0,19.0,85,30.02,10.0,NE,5.8,-,N/A,,Partly Cloudy,50,2013-10-03 10:53:00
3:53 AM,21.9,19.0,89,30.01,10.0,NE,5.8,-,N/A,,Clear,40,2013-10-03 11:53:00
4:53 AM,21.9,19.0,89,30.01,10.0,North,5.8,-,N/A,,Partly Cloudy,10,2013-10-03 12:53:00
5:53 AM,21.0,18.0,88,30.00,10.0,ENE,4.6,-,N/A,,Overcast,60,2013-10-03 13:53:00
6:53 AM,21.9,19.0,89,29.99,10.0,NNE,8.1,-,N/A,,Overcast,30,2013-10-03 14:53:00
7:53 AM,24.1,19.9,84,29.98,10.0,NNE,4.6,-,N/A,,Overcast,30,2013-10-03 15:53:00
8:53 AM,26.1,21.9,84,29.97,10.0,NNE,8.1,-,N/A,,Overcast,20,2013-10-03 16:53:00
9:53 AM,25.0,21.0,85,29.97,10.0,NNE,8.1,-,N/A,,Overcast,30,2013-10-03 17:53:00
10:53 AM,26.1,23.0,88,29.96,10.0,NNE,9.2,-,N/A,,Overcast,20,2013-10-03 18:53:00
11:53 AM,27.0,23.0,85,29.96,10.0,North,9.2,-,N/A,,Overcast,10,2013-10-03 19:53:00
12:53 PM,30.0,24.1,79,29.95,10.0,NNE,6.9,-,N/A,,Overcast,20,2013-10-03 20:53:00
1:53 PM,30.9,24.1,76,29.95,10.0,NW,5.8,-,N/A,,Scattered Clouds,320,2013-10-03 21:53:00
2:53 PM,32.0,24.1,73,29.93,10.0,WNW,9.2,-,N/A,,Clear,300,2013-10-03 22:53:00
3:53 PM,30.0,24.1,79,29.92,10.0,WNW,8.1,-,N/A,,Mostly Cloudy,290,2013-10-03 23:53:00
4:26 PM,30.2,24.8,80,29.91,8.0,WNW,3.5,-,N/A,,Scattered Clouds,290,2013-10-04 00:26:00
4:47 PM,30.2,24.8,80,29.91,1.8,Calm,Calm,-,N/A,,Haze,0,2013-10-04 00:47:00
4:53 PM,30.0,24.1,79,29.91,1.5,Calm,Calm,-,N/A,,Haze,0,2013-10-04 00:53:00
4:56 PM,30.2,24.8,80,29.91,5.0,Calm,Calm,-,N/A,,Haze,0,2013-10-04 00:56:00
5:25 PM,30.2,24.8,80,29.90,4.0,Calm,Calm,-,N/A,,Haze,0,2013-10-04 01:25:00
5:53 PM,30.9,24.1,76,29.89,10.0,Calm,Calm,-,N/A,,Clear,0,2013-10-04 01:53:00
6:53 PM,30.0,24.1,79,29.89,9.0,Calm,Calm,-,N/A,,Clear,0,2013-10-04 02:53:00
8:53 PM,28.0,23.0,81,29.88,10.0,NNW,5.8,-,N/A,,Clear,340,2013-10-04 04:53:00
9:53 PM,27.0,21.0,78,29.88,10.0,North,5.8,-,N/A,,Clear,350,2013-10-04 05:53:00
10:53 PM,26.1,19.9,78,29.88,10.0,North,4.6,-,N/A,,Clear,10,2013-10-04 06:53:00
11:53 PM,25.0,19.9,81,29.88,10.0,NNE,8.1,-,N/A,,Clear,20,2013-10-04 07:53:00